カタログに戻る

HULIANWANG DIGUI-185

運用中科学LEO
NORAD 100210·PAYLOAD·🇨🇳 China

打ち上げ Aug 4, 2026 から Wenchang Space Launch Site

Loading…

次のパス (今後24時間)

TLE

最新Source: Space-Track

元期: Sep 14, 2026, 22:44 UTC

1 A0210U 26176H   26257.94775980 -.00000087  00000-0  80220-4 0  9998
2 A0210  49.9934 243.6755 0000218   1.0740 359.0132 13.29327757  5563

AllMySatでHULIANWANG DIGUI-185をリアルタイム追跡

Download on the App Store